Franklin, PA

8:45 AM EST on December 12, 2019 (GMT -0500)
Venango Regional

Weather History for KFKL - October, 2019

Change the Weather History Date:

Thursday, October 3, 2019

  Actual Average Record
Temperature  
Mean Temperature 70 °F -  
Max Temperature 82 °F 65 °F 87 °F (1927)
Min Temperature 59 °F 43 °F 28 °F (2003)
Cooling Degree Days 5    
Growing Degree Days 20 (Base 50)    
Moisture  
Dew Point 62 °F    
Average Humidity 94    
Maximum Humidity 100    
Minimum Humidity 69    
Precipitation  
Precipitation 0.31 in - - ()
Sea Level Pressure  
Sea Level Pressure 29.98 in    
Wind  
Wind Speed 6 mph (ESE)    
Max Wind Speed 15 mph    
Max Gust Speed 26 mph    
Visibility 4 miles    
Events Fog , Rain    
Averages and records for this station are not official NWS values.
T = Trace of Precipitation, MM = Missing Value Source: NWS Daily Summary

Daily Weather History Graph

Daily Weather History Graph

Search for Another Location

Airport or City:

Astronomy

Oct. 03, 2019 Rise Set
Actual Time 7:18 AM EDT 6:58 PM EDT
Civil Twilight 6:50 AM EDT 7:25 PM EDT
Nautical Twilight 6:18 AM EDT 7:57 PM EDT
Astronomical Twilight 5:46 AM EDT 8:30 PM EDT
Moon 12:51 PM EDT (10/3) 10:32 PM EDT (10/3)
Length of Visible Light 12h 35m
Length of Day
11h 40m
Waxing Crescent, 29% of the Moon is Illuminated
Oct 3
Waxing Crescent
Oct 5
First Quarter
Oct 13
Full
Oct 21
Last Quarter
Oct 27
New

Hourly Weather History & Observations

Time (EDT) Temp. Heat Index Dew Point Humidity Pressure Visibility Wind Dir Wind Speed Gust Speed Precip Events Conditions
12:56 AM 64.0 °F - 63.0 °F 96% 29.94 in 5.0 mi NNE 6.9 mph - 0.00 in Rain Light Rain
1:56 AM 62.1 °F - 62.1 °F 100% 29.95 in 5.0 mi NE 9.2 mph - 0.00 in   Overcast
2:41 AM 62.6 °F - 60.8 °F 94% 29.98 in 2.0 mi NE 4.6 mph - 0.00 in Rain Light Rain
2:51 AM 62.6 °F - 60.8 °F 94% 29.98 in 1.5 mi NE 4.6 mph - 0.00 in Rain Light Rain
2:56 AM 62.1 °F - 61.0 °F 96% 29.95 in 1.0 mi ENE 5.8 mph - 0.00 in Rain Light Rain
3:06 AM 62.6 °F - 60.8 °F 94% 29.97 in 0.8 mi ENE 5.8 mph - 0.00 in Rain Light Rain
3:27 AM 60.8 °F - 60.8 °F 100% 29.97 in 1.2 mi ENE 6.9 mph - 0.01 in Rain Light Rain
3:56 AM 60.1 °F - 60.1 °F 100% 29.96 in 1.5 mi ENE 4.6 mph - 0.01 in   Overcast
4:12 AM 60.8 °F - 59.0 °F 94% 29.99 in 1.0 mi NE 5.8 mph - N/A   Overcast
4:19 AM 60.8 °F - 59.0 °F 94% 29.99 in 0.8 mi NE 4.6 mph - N/A   Overcast
4:33 AM 60.8 °F - 59.0 °F 94% 29.98 in 1.2 mi East 5.8 mph - N/A   Overcast
4:36 AM 60.8 °F - 59.0 °F 94% 29.98 in 3.0 mi East 4.6 mph - N/A   Overcast
4:56 AM 59.0 °F - 59.0 °F 100% 29.98 in 8.0 mi ENE 5.8 mph - N/A   Overcast
5:08 AM 59.0 °F - 59.0 °F 100% 29.99 in 1.8 mi ENE 3.5 mph - N/A   Overcast
5:11 AM 59.0 °F - 59.0 °F 100% 29.99 in 0.8 mi ENE 5.8 mph - N/A   Overcast
5:20 AM 59.0 °F - 59.0 °F 100% 29.99 in 0.5 mi East 5.8 mph - N/A Fog Fog
5:23 AM 59.0 °F - 59.0 °F 100% 29.99 in 1.0 mi East 4.6 mph - N/A   Overcast
5:27 AM 59.0 °F - 59.0 °F 100% 29.99 in 2.5 mi ESE 8.1 mph - N/A   Overcast
5:34 AM 59.0 °F - 59.0 °F 100% 29.99 in 5.0 mi ESE 3.5 mph - N/A   Overcast
5:40 AM 59.0 °F - 59.0 °F 100% 30.00 in 1.8 mi East 4.6 mph - N/A   Overcast
5:52 AM 59.0 °F - 59.0 °F 100% 30.00 in 2.5 mi East 5.8 mph - N/A   Overcast
5:56 AM 59.0 °F - 59.0 °F 100% 29.98 in 2.0 mi East 5.8 mph - N/A   Overcast
6:16 AM 59.0 °F - 59.0 °F 100% 30.00 in 1.2 mi East 4.6 mph - N/A   Overcast
6:49 AM 59.0 °F - 59.0 °F 100% 30.01 in 2.5 mi SE 6.9 mph - 0.25 in Rain Heavy Rain
6:52 AM 59.0 °F - 59.0 °F 100% 30.01 in 3.0 mi SE 5.8 mph - 0.25 in Rain Rain
6:56 AM 59.0 °F - 59.0 °F 100% 30.00 in 6.0 mi ESE 4.6 mph - 0.26 in Rain Light Rain
7:20 AM 59.0 °F - 59.0 °F 100% 30.01 in 2.5 mi ENE 4.6 mph - 0.00 in Rain Light Rain
7:23 AM 59.0 °F - 59.0 °F 100% 30.00 in 1.0 mi East 3.5 mph - 0.00 in Rain Light Rain
7:26 AM 59.0 °F - 59.0 °F 100% 30.01 in 0.5 mi ESE 4.6 mph - 0.00 in Fog , Rain Light Rain
7:49 AM 59.0 °F - 59.0 °F 100% 30.00 in 1.0 mi ESE 6.9 mph - 0.04 in Rain Light Rain
7:56 AM 59.0 °F - 59.0 °F 100% 29.97 in 1.5 mi SE 11.5 mph - 0.04 in Rain Light Rain
8:11 AM 60.8 °F - 59.0 °F 94% 29.98 in 3.0 mi ESE 9.2 mph - 0.00 in Rain Light Rain
8:18 AM 60.8 °F - 60.8 °F 100% 29.98 in 1.8 mi ESE 8.1 mph - 0.00 in   Overcast
8:28 AM 60.8 °F - 60.8 °F 100% 29.99 in 0.8 mi ESE 3.5 mph - 0.00 in   Overcast
8:42 AM 60.8 °F - 60.8 °F 100% 30.00 in 0.5 mi ESE 4.6 mph - 0.00 in Fog Fog
8:51 AM 60.8 °F - 60.8 °F 100% 30.00 in 0.2 mi Calm Calm - 0.00 in Fog Fog
8:56 AM 60.1 °F - 60.1 °F 100% 29.99 in 0.2 mi ESE 3.5 mph - 0.00 in Fog Fog
9:23 AM 60.8 °F - 60.8 °F 100% 29.99 in 0.5 mi SSE 5.8 mph - N/A Fog Fog
9:38 AM 62.6 °F - 62.6 °F 100% 29.99 in 0.2 mi South 4.6 mph - N/A Fog Fog
9:45 AM 62.6 °F - 62.6 °F 100% 29.98 in 0.5 mi SSE 5.8 mph - N/A Fog Fog
9:56 AM 63.0 °F - 62.1 °F 97% 29.97 in 0.5 mi South 4.6 mph - N/A Fog Fog
10:09 AM 62.6 °F - 62.6 °F 100% 29.98 in 0.2 mi South 5.8 mph - N/A Fog Fog
10:56 AM 64.9 °F - 64.9 °F 100% 29.96 in 0.2 mi South 5.8 mph - N/A Fog Fog
11:06 AM 66.2 °F - 66.2 °F 100% 29.97 in 0.5 mi South 6.9 mph - N/A Fog Fog
11:15 AM 66.2 °F - 66.2 °F 100% 29.97 in 0.8 mi South 6.9 mph - N/A   Overcast
11:26 AM 66.2 °F - 66.2 °F 100% 29.96 in 1.2 mi South 6.9 mph - N/A   Overcast
11:37 AM 68.0 °F - 66.2 °F 94% 29.96 in 3.0 mi South 8.1 mph - N/A   Overcast
11:56 AM 70.0 °F - 69.1 °F 97% 29.94 in 7.0 mi South 6.9 mph - N/A   Overcast
12:11 PM 71.6 °F - 69.8 °F 94% 29.96 in 9.0 mi SSW 6.9 mph - N/A   Overcast
12:26 PM 73.4 °F - 71.6 °F 94% 29.95 in 10.0 mi SSW 5.8 mph - N/A   Scattered Clouds
12:56 PM 78.1 °F - 71.1 °F 79% 29.91 in 10.0 mi Variable 6.9 mph - N/A   Mostly Cloudy
1:20 PM 78.8 °F - 69.8 °F 74% 29.93 in 10.0 mi WSW 15.0 mph 21.9 mph N/A   Scattered Clouds
1:56 PM 80.1 °F 83.2 °F 70.0 °F 71% 29.89 in 10.0 mi WSW 8.1 mph - N/A   Mostly Cloudy
2:56 PM 81.0 °F 84.4 °F 70.0 °F 69% 29.88 in 10.0 mi WSW 10.4 mph - N/A   Overcast
3:56 PM 79.0 °F - 69.1 °F 72% 29.87 in 10.0 mi WNW 10.4 mph 19.6 mph 0.00 in   Overcast
4:56 PM 75.9 °F - 72.0 °F 87% 29.90 in 10.0 mi WNW 8.1 mph - 0.00 in   Overcast
5:09 PM 75.2 °F - 71.6 °F 89% 29.92 in 10.0 mi NW 6.9 mph 17.3 mph N/A   Overcast
5:56 PM 73.0 °F - 68.0 °F 84% 29.94 in 10.0 mi WNW 9.2 mph 17.3 mph N/A   Overcast
6:45 PM 69.8 °F - 64.4 °F 83% 29.98 in 10.0 mi Variable 6.9 mph - N/A   Overcast
6:56 PM 69.1 °F - 64.0 °F 84% 29.97 in 10.0 mi WNW 12.7 mph 26.5 mph N/A   Overcast
7:10 PM 69.8 °F - 64.4 °F 83% 29.98 in 10.0 mi WNW 13.8 mph 23.0 mph N/A   Overcast
7:56 PM 66.9 °F - 62.1 °F 84% 30.01 in 10.0 mi WNW 13.8 mph 25.3 mph N/A   Overcast
8:14 PM 66.2 °F - 60.8 °F 83% 30.02 in 10.0 mi NW 8.1 mph 20.7 mph N/A   Overcast
8:32 PM 64.4 °F - 60.8 °F 88% 30.02 in 10.0 mi WNW 5.8 mph - N/A   Mostly Cloudy
8:56 PM 64.0 °F - 60.1 °F 87% 30.02 in 10.0 mi NW 11.5 mph 17.3 mph N/A   Mostly Cloudy
9:56 PM 63.0 °F - 59.0 °F 87% 30.04 in 10.0 mi NW 5.8 mph - N/A   Overcast
10:56 PM 61.0 °F - 55.9 °F 83% 30.06 in 10.0 mi Variable 4.6 mph - N/A   Overcast
11:22 PM 60.8 °F - 55.4 °F 82% 30.07 in 10.0 mi NW 4.6 mph - N/A   Overcast
11:42 PM 60.8 °F - 55.4 °F 82% 30.07 in 10.0 mi Variable 5.8 mph - N/A   Overcast
11:56 PM 59.0 °F - 55.0 °F 87% 30.06 in 10.0 mi Variable 6.9 mph - N/A   Mostly Cloudy